רגע לפני שאתם עוזבים...
יש לנו ב
הצעה מיוחד עבורכם!
מספר שירותים שכדאי שתכירו
| לוחית | שעת חיפוש | ||||
| 1114850 | טויוטה טורקיה | COROLLA | 2003 | 29/08/2026 | 11:55:37 |
| 5834216 | ב מ וו גרמניה | 523I | 2007 | 29/08/2026 | 11:55:27 |
| 8944778 | פיג'ו צ'כיה | 107 | 2012 | 29/08/2026 | 11:55:27 |
| 47530202 | סובארו יפן | XV | 2021 | 29/08/2026 | 11:55:25 |
| 79653603 | דיפאל סין | DEEPAL S07 | 2025 | 29/08/2026 | 11:55:24 |
| 46055401 | טויוטה טורקיה | C-HR HYBRID | 2019 | 29/08/2026 | 11:55:22 |
| 46408501 | טויוטה יפן | LAND CRUISER | 2019 | 29/08/2026 | 11:55:21 |
| 1504585 | קיה קוריאה הדרומית | NIRO | 2016 | 29/08/2026 | 11:55:19 |
| 1694411 | יונדאי טורקיה | I20 | 2013 | 29/08/2026 | 11:55:19 |
| 5748112 | סקודה צ'כיה | SUPERB | 2013 | 29/08/2026 | 11:55:11 |
| 1062187 | הונדה בריטניה | CIVIC | 2017 | 29/08/2026 | 11:55:09 |
| 8426733 | הונדה יפן | JAZZ | 2015 | 29/08/2026 | 11:55:09 |
| 7446933 | סוזוקי הונגריה | SX4 CROSSOVER | 2015 | 29/08/2026 | 11:54:59 |
| 40100503 | איסוזו יפן | - | 2023 | 29/08/2026 | 11:54:59 |
| 68129504 | מרצדס בנץ גרמנ | - | 2026 | 29/08/2026 | 11:54:55 |
| 59173303 | צ'רי סין | TIGGO 8 PRO | 2023 | 29/08/2026 | 11:54:54 |
| 47530202 | סובארו יפן | XV | 2021 | 29/08/2026 | 11:54:47 |
| 1042789 | ג'אנסטיל ישראל | - | 2017 | 29/08/2026 | 11:54:39 |
| 85122102 | ב מ וו בריטניה | COOPER | 2022 | 29/08/2026 | 11:54:38 |
| 5834216 | ב מ וו גרמניה | 523I | 2007 | 29/08/2026 | 11:54:37 |
| 4247852 | רנו טורקיה | MEGANE | 2013 | 29/08/2026 | 11:54:36 |
| 20548403 | מ.ג סין | MARVEL R | 2024 | 29/08/2026 | 11:54:32 |
| 88709002 | יגואר בריטניה | F-PACE | 2022 | 29/08/2026 | 11:54:31 |
| 14520904 | מרצדס ארהב" | GLE53 4MATIC | 2024 | 29/08/2026 | 11:54:31 |
| 56170101 | סקודה צ'כיה | OCTAVIA | 2018 | 29/08/2026 | 11:54:29 |
| 1818073 | מיצובישי יפן | OUTLANDER | 2010 | 29/08/2026 | 11:54:26 |
| 3119578 | הונדה יפן | ACCORD | 2011 | 29/08/2026 | 11:54:26 |
| 86819902 | טויוטה בריטניה | COROLLA TS HSD | 2022 | 29/08/2026 | 11:54:23 |
| 46598102 | יונדאי קוריאה הדרומית | IONIQ HYBRID | 2021 | 29/08/2026 | 11:54:21 |
| 51754103 | פורד ד אפריקה | RANGER | 2024 | 29/08/2026 | 11:54:18 |
| 88955901 | יונדאי קוריאה הדרומית | SANTA FE | 2020 | 29/08/2026 | 11:54:13 |
| 4208464 | טויוטה יפן | COROLLA | 2008 | 29/08/2026 | 11:54:12 |
| 19266503 | יונדאי טורקיה | I10 | 2023 | 29/08/2026 | 11:54:08 |
| 4692770 | סאן יאנג טיואן | - | 2009 | 29/08/2026 | 11:54:07 |
| 5820352 | טויוטה טורקיה | COROLLA | 2013 | 29/08/2026 | 11:54:02 |
| 7008234 | מאן אוסטריה | - | 2016 | 29/08/2026 | 11:53:57 |
| 56891404 | צ'רי סין | FX HEV | 2026 | 29/08/2026 | 11:53:55 |
| 51441303 | בסאמכו ישראל | - | 2023 | 29/08/2026 | 11:53:53 |
| 4908774 | טויוטה יפן | PRIUS HYBRID | 2011 | 29/08/2026 | 11:53:52 |
| 5181181 | מרצדס גרמניה | E350E | 2017 | 29/08/2026 | 11:53:51 |
| 55565203 | קוואסאקי ארהב" | - | 2023 | 29/08/2026 | 11:53:48 |
| 49149102 | פיאג'ו איטליה | - | 2025 | 29/08/2026 | 11:53:47 |
| 1135766 | שברולט קוריאה הדרומית | OPTRA | 2008 | 29/08/2026 | 11:53:45 |
| 7108468 | מזדה יפן | MAZDA 3 | 2010 | 29/08/2026 | 11:53:43 |
| 80627201 | טויוטה צרפת | YARIS | 2019 | 29/08/2026 | 11:53:42 |
| 82617501 | מיצובישי יפן | ASX | 2019 | 29/08/2026 | 11:53:40 |
| 20469402 | מיצובישי תאילנד | L200 | 2020 | 29/08/2026 | 11:53:37 |
| 9215478 | אוטוטק פז ווים | - | 2015 | 29/08/2026 | 11:53:36 |
| 61426704 | קיה קוריאה הדרומית | CARNIVAL | 2026 | 29/08/2026 | 11:53:35 |
| 5966116 | ב מ וו בריטניה | MINI COOPER S | 2008 | 29/08/2026 | 11:53:32 |
| 8493575 | פורד גרמניה | FOCUS | 2012 | 29/08/2026 | 11:53:29 |
| 49952704 | טויוטה יפן | LAND CRUISER | 2025 | 29/08/2026 | 11:53:28 |
| 57161001 | הונדה בריטניה | CIVIC | 2018 | 29/08/2026 | 11:53:27 |
| 49112102 | קימקו טאיוון | - | 2024 | 29/08/2026 | 11:53:26 |
| 21331 | וויליס ארהב" | - | 1942 | 29/08/2026 | 11:53:26 |
| 49149102 | פיאג'ו איטליה | - | 2025 | 29/08/2026 | 11:53:25 |
| 20006702 | יונדאי צ'כיה | TUCSON | 2020 | 29/08/2026 | 11:53:22 |
| 5918755 | יונדאי טורקיה | I10 | 2017 | 29/08/2026 | 11:53:18 |
| 8230075 | ב מ וו בריטניה | MINI ONE | 2012 | 29/08/2026 | 11:53:17 |
| 9932276 | מרצדס בנץ גרמנ | - | 2014 | 29/08/2026 | 11:53:17 |
| 49112102 | קימקו טאיוון | - | 2024 | 29/08/2026 | 11:53:16 |
| 36236301 | סקודה צ'כיה | NEW OCTAVIA | 2018 | 29/08/2026 | 11:53:13 |
| 85293503 | פורד ארהב" | BRONCO BADLANDS | 2024 | 29/08/2026 | 11:53:11 |
| 55355301 | יונדאי טורקיה | I20 | 2019 | 29/08/2026 | 11:53:09 |
| 1082853 | אאודי גרמניה | A3 | 2014 | 29/08/2026 | 11:53:07 |
| 85155803 | קיה קוריאה הדרומית | STONIC | 2024 | 29/08/2026 | 11:53:06 |
| 1062054 | אביב סוכנויות | - | 2014 | 29/08/2026 | 11:53:06 |
| 2851031 | יונדאי טורקיה | I20 | 2014 | 29/08/2026 | 11:53:02 |
| 9451575 | לנדרובר אנגליה | - | 2013 | 29/08/2026 | 11:52:59 |
| 5314458 | סוזוקי הונגריה | SX4 | 2014 | 29/08/2026 | 11:52:57 |
| 49919302 | ב מ וו ארהב" | X6M COMPETITON | 2021 | 29/08/2026 | 11:52:54 |
| 2915432 | שברולט קוריאה הדרומית | SPARK | 2014 | 29/08/2026 | 11:52:53 |
| 2812330 | יונדאי צ'כיה | I30 | 2014 | 29/08/2026 | 11:52:51 |
| 20494201 | ניסאן בריטניה | QASHQAI | 2018 | 29/08/2026 | 11:52:49 |
| 49149102 | פיאג'ו איטליה | - | 2025 | 29/08/2026 | 11:52:45 |
| 41536802 | ימהה יפן | - | 2021 | 29/08/2026 | 11:52:45 |
| 1232963 | הונדה יפן | CIVIC | 2007 | 29/08/2026 | 11:52:43 |
| 6180052 | טויוטה יפן | RAV 4 | 2013 | 29/08/2026 | 11:52:43 |
| 37528904 | דונגפנג סין | BOX | 2025 | 29/08/2026 | 11:52:42 |
| 5004511 | מיצובישי תאילנד | SPACE STAR | 2013 | 29/08/2026 | 11:52:39 |
| 72644403 | מודרן סין | M5 | 2025 | 29/08/2026 | 11:52:37 |
| 16843801 | מיצובישי יפן | OUTLANDER | 2018 | 29/08/2026 | 11:52:36 |
| 14517702 | קואנג יאנג טיו | - | 2021 | 29/08/2026 | 11:52:32 |
| 73179401 | יונדאי טורקיה | I10 | 2019 | 29/08/2026 | 11:52:28 |
| 3430665 | מיצובישי פורט' | - | 2008 | 29/08/2026 | 11:52:28 |
| 5300030 | לקסוס יפן | LEXUS LS460 | 2014 | 29/08/2026 | 11:52:26 |
| 88705503 | ב מ וו ארהב" | X5 XDRIVE50E | 2024 | 29/08/2026 | 11:52:23 |
| 1608612 | דימלרקריזלר-גר | - | 2013 | 29/08/2026 | 11:52:21 |
| 22224001 | פורשה גרמניה | PANAMERA 4 E-HY | 2018 | 29/08/2026 | 11:52:21 |
| 49952704 | טויוטה יפן | LAND CRUISER | 2025 | 29/08/2026 | 11:52:17 |
| 73025104 | טויוטה יפן | RAV 4 | 2026 | 29/08/2026 | 11:52:16 |
| 49112102 | קימקו טאיוון | - | 2024 | 29/08/2026 | 11:52:15 |
| 5174876 | יונדאי טורקיה | I20 | 2011 | 29/08/2026 | 11:52:11 |
| 60955702 | פולקסווגן גרמניה | PASSAT | 2021 | 29/08/2026 | 11:52:09 |
| 59944101 | ב מ וו גרמניה | 218I | 2019 | 29/08/2026 | 11:52:09 |
| 1745072 | קיה קוריאה הדרומית | FORTE | 2010 | 29/08/2026 | 11:52:09 |
| 8901871 | טויוטה טורקיה | AURIS | 2010 | 29/08/2026 | 11:52:06 |
| 4334363 | ניסאן בריטניה | PRIMERA | 2007 | 29/08/2026 | 11:52:06 |
| 40123002 | מרצדס גרמניה | E200 | 2021 | 29/08/2026 | 11:52:04 |
| 70752402 | טויוטה ארהב" | HIGHLANDER | 2021 | 29/08/2026 | 11:52:02 |
| 63977703 | אודי מקסיקו | Q5 SPORTBACK | 2024 | 29/08/2026 | 11:52:01 |
| 52648501 | יונדאי צ'כיה | TUCSON | 2018 | 29/08/2026 | 11:51:59 |
| 893850 | פורד ארה"ב | - | 1967 | 29/08/2026 | 11:51:57 |
| 7789961 | יונדאי קוריאה הדרומית | טראק 1H | 2007 | 29/08/2026 | 11:51:54 |
| 1429334 | מיצובישי יפן | OUTLANDER | 2015 | 29/08/2026 | 11:51:49 |
| 71895501 | שברולט קוריאה הדרומית | SPARK | 2020 | 29/08/2026 | 11:51:49 |
| 8493575 | פורד גרמניה | FOCUS | 2012 | 29/08/2026 | 11:51:46 |
| 6520376 | סיאט ספרד | IBIZA | 2012 | 29/08/2026 | 11:51:44 |
| 1075053 | פולקסווגן פולין | CADDY MAXI | 2014 | 29/08/2026 | 11:51:42 |
| 7353534 | פיאט איטליה | - | 2015 | 29/08/2026 | 11:51:41 |
| 2194534 | יונדאי טורקיה | I10 | 2015 | 29/08/2026 | 11:51:39 |
| 79654803 | דיפאל סין | DEEPAL S07 | 2025 | 29/08/2026 | 11:51:39 |
| 14741103 | טויוטה יפן | RAV 4 HYBRID | 2022 | 29/08/2026 | 11:51:38 |
| 89317501 | טויוטה בריטניה | COROLLA HSD HB | 2019 | 29/08/2026 | 11:51:38 |
| 27999903 | ניאו רכב סין | EL6 | 2025 | 29/08/2026 | 11:51:37 |
| 55807601 | יונדאי קוריאה הדרומית | IONIQ HYBRID | 2019 | 29/08/2026 | 11:51:37 |
| 5012064 | רנו טורקיה | MEGANE II | 2008 | 29/08/2026 | 11:51:36 |
| 44993402 | דאצ'יה רומניה | DOKKER | 2021 | 29/08/2026 | 11:51:34 |
| 5460232 | טויוטה צרפת | YARIS HYBRID | 2015 | 29/08/2026 | 11:51:31 |
| 1582471 | סקודה צ'כיה | ROOMSTER | 2010 | 29/08/2026 | 11:51:31 |
| 5708611 | פיאט פולין | FIAT 500 1.4 | 2013 | 29/08/2026 | 11:51:26 |
| 1301263 | הונדה יפן | ACCORD | 2007 | 29/08/2026 | 11:51:26 |
| 6450586 | טויוטה טורקיה | C-HR HYBRID | 2017 | 29/08/2026 | 11:51:25 |
| 7480939 | מרצדס גרמניה | GLA200 | 2017 | 29/08/2026 | 11:51:21 |
| 18378501 | דאצ'יה רומניה | DUSTER | 2017 | 29/08/2026 | 11:51:19 |
| 85754602 | קיה קוריאה הדרומית | SORENTO | 2022 | 29/08/2026 | 11:51:16 |
| 50777703 | אלפין צרפת | A110 | 2023 | 29/08/2026 | 11:51:14 |
| 4059031 | מיצובישי תאילנד | ATTRAGE | 2014 | 29/08/2026 | 11:51:11 |
| 88072802 | מרצדס ארהב" | GLE 350D 4MATIC | 2022 | 29/08/2026 | 11:51:08 |
| 29533701 | מזדה יפן | MAZDA 6 | 2017 | 29/08/2026 | 11:51:07 |
| 68196101 | ניסאן בריטניה | QASHQAI | 2019 | 29/08/2026 | 11:51:04 |
| 3411978 | וולבו בלגיה | XC60 T6 | 2011 | 29/08/2026 | 11:51:03 |
| 74600303 | טויוטה טורקיה | COROLLA SDN HSD | 2024 | 29/08/2026 | 11:50:58 |
| 70701102 | טויוטה טורקיה | COROLLA SDN HSD | 2021 | 29/08/2026 | 11:50:57 |
| 9526773 | ב מ וו גרמניה | - | 2011 | 29/08/2026 | 11:50:53 |
| 60879801 | מזדה יפן | MAZDA 3 | 2020 | 29/08/2026 | 11:50:48 |
| 6877132 | סוזוקי הונגריה | SX4 | 2014 | 29/08/2026 | 11:50:43 |
| 7036731 | קיה קוריאה הדרומית | PICANTO | 2014 | 29/08/2026 | 11:50:33 |
| 6450586 | טויוטה טורקיה | C-HR HYBRID | 2017 | 29/08/2026 | 11:50:25 |
| 6450586 | טויוטה טורקיה | C-HR HYBRID | 2017 | 29/08/2026 | 11:50:24 |
| 26380602 | קוואסאקי יפן | - | 2020 | 29/08/2026 | 11:50:21 |
| 3422364 | פולקסווגן מקסיקה | JETTA | 2008 | 29/08/2026 | 11:50:18 |
| 4408038 | סיאט ספרד | LEON | 2016 | 29/08/2026 | 11:50:10 |
| 26089101 | סקודה צ'כיה | NEW OCTAVIA | 2017 | 29/08/2026 | 11:50:09 |
| 5070016 | ב מ וו גרמניה | 328I CAB | 1997 | 29/08/2026 | 11:50:09 |
| 1175132 | יונדאי קוריאה הדרומית | I25 | 2014 | 29/08/2026 | 11:50:08 |
| 7556409 | טויוטה יפן | RAV 4 | 2017 | 29/08/2026 | 11:50:05 |
| 23708002 | ניסאן יפן | X-TRAIL | 2020 | 29/08/2026 | 11:50:04 |
| 8678971 | טויוטה יפן | COROLLA | 2010 | 29/08/2026 | 11:50:03 |
| 1583984 | רנו צרפת | - | 1984 | 29/08/2026 | 11:50:01 |
| 3939975 | פורד ספרד | FOCUS | 2011 | 29/08/2026 | 11:49:54 |
| 6450586 | טויוטה טורקיה | C-HR HYBRID | 2017 | 29/08/2026 | 11:49:54 |
| 57626403 | יונדאי קוריאה הדרומית | ELANTRA HEV | 2023 | 29/08/2026 | 11:49:52 |
| 36696502 | מזדה יפן | MAZDA 3 | 2020 | 29/08/2026 | 11:49:50 |
| 59060201 | סוזוקי יפן | IGNIS | 2019 | 29/08/2026 | 11:49:47 |
| 4641536 | טויוטה יפן | COROLLA | 2002 | 29/08/2026 | 11:49:45 |
| 4947626 | בי ווי די סין | SEAL U | 2026 | 29/08/2026 | 11:49:39 |
| 5585052 | טויוטה טורקיה | COROLLA | 2013 | 29/08/2026 | 11:49:37 |
| 3730139 | איסוזו תאילנד | PICK - UP | 2016 | 29/08/2026 | 11:49:32 |
| 6284033 | קיה סלובקיה | CEED | 2015 | 29/08/2026 | 11:49:30 |
| 63575603 | בי ווי די סין | ATTO 3 | 2024 | 29/08/2026 | 11:49:28 |
| 1061853 | סיאט צ'כיה | TOLEDO | 2014 | 29/08/2026 | 11:49:26 |
| 6589313 | סיטרואן צרפת | C3 | 2012 | 29/08/2026 | 11:49:25 |
| 67433002 | ב מ וו גרמניה | M5 COMPETITION | 2021 | 29/08/2026 | 11:49:24 |
| 67433002 | ב מ וו גרמניה | M5 COMPETITION | 2021 | 29/08/2026 | 11:49:24 |
| 46158601 | לקסוס יפן | LEXUS NX300H | 2019 | 29/08/2026 | 11:49:24 |
| 9591061 | טויוטה יפן | - | 2007 | 29/08/2026 | 11:49:22 |
| 4904075 | פורד גרמניה | FIESTA | 2012 | 29/08/2026 | 11:49:20 |
| 3672769 | מזדה יפן | MAZDA 3 | 2009 | 29/08/2026 | 11:49:19 |
| 69393402 | פורד ארהב" | - | 2022 | 29/08/2026 | 11:49:16 |
| 4697454 | פולקסווגן גרמניה | GOLF | 2015 | 29/08/2026 | 11:49:15 |
| 89080902 | איסוזו יפן | - | 2022 | 29/08/2026 | 11:49:10 |
| 4408038 | סיאט ספרד | LEON | 2016 | 29/08/2026 | 11:49:09 |
| 1517251 | סיטרואן ספרד | BERLINGO | 2003 | 29/08/2026 | 11:49:08 |
| 28108002 | סיאט ספרד | IBIZA | 2020 | 29/08/2026 | 11:49:02 |
| 3589054 | סיאט ספרד | IBIZA | 2015 | 29/08/2026 | 11:48:57 |
| 8967433 | וולבו שוודיה | - | 2016 | 29/08/2026 | 11:48:55 |
| 25276202 | קיה קוריאה הדרומית | STONIC | 2020 | 29/08/2026 | 11:48:49 |
| 57119304 | צ'רי סין | TIGGO 4 HYBRID | 2026 | 29/08/2026 | 11:48:46 |
| 76354002 | יונדאי קוריאה הדרומית | SONATA HYBRID | 2022 | 29/08/2026 | 11:48:45 |
| 1817073 | מיצובישי יפן | GRANDIS | 2010 | 29/08/2026 | 11:48:40 |
| 5096652 | טויוטה צרפת | YARIS HYBRID | 2013 | 29/08/2026 | 11:48:31 |
| 6848552 | טויוטה טורקיה | COROLLA | 2013 | 29/08/2026 | 11:48:30 |
| 7591963 | טויוטה יפן | CAMRY | 2008 | 29/08/2026 | 11:48:25 |
| 30062002 | שברולט קוריאה הדרומית | TRAIL BLAZER | 2021 | 29/08/2026 | 11:48:20 |
| 6461954 | מזדה יפן | MAZDA 2 | 2015 | 29/08/2026 | 11:48:19 |
| 16222003 | יונדאי קוריאה הדרומית | KONA HYBRID | 2022 | 29/08/2026 | 11:48:15 |
| 4941558 | מזדה יפן | MAZDA3 | 2005 | 29/08/2026 | 11:48:15 |
| 5918126 | טויוטה יפן | RAV 4 HYBRID | 2024 | 29/08/2026 | 11:48:12 |
| 6990280 | קי טי אם הודו | - | 2018 | 29/08/2026 | 11:48:10 |
| 60450001 | ב מ וו גרמניה | 840I | 2020 | 29/08/2026 | 11:48:07 |
| 8882251 | פולקסווגן גרמניה | GOLF | 2004 | 29/08/2026 | 11:48:06 |
| 60445802 | סיאט ספרד | IBIZA | 2021 | 29/08/2026 | 11:48:05 |
| 50363003 | מרצדס בנץ גרמנ | - | 2023 | 29/08/2026 | 11:48:00 |
| 57507203 | מרצדס ארהב" | GLS400D 4MATIC | 2024 | 29/08/2026 | 11:48:00 |
| 9707523 | דייהו ד. קוריא | LANOS | 2001 | 29/08/2026 | 11:47:55 |
| 7157232 | סוזוקי הונגריה | SX4 CROSSOVER | 2014 | 29/08/2026 | 11:47:45 |
| 33565803 | יונדאי טורקיה | BAYON | 2023 | 29/08/2026 | 11:47:44 |
| 16634804 | סקודה צ'כיה | SUPERB | 2025 | 29/08/2026 | 11:47:40 |
| 2896537 | טויוטה בריטניה | AURIS HYBRID | 2016 | 29/08/2026 | 11:47:38 |